Location: White Mills Observatory
(37.5374°N, 86.0303°W)
Time: 19:49:23
(UTC-05:00)

Hubble Space Telescope - Visible Passes

Search period start: 20 January 2018 00:00
Search period end: 30 January 2018 00:00
Orbit: 537 x 541 km, 28.5° (Epoch: 20 January)

Date Brightness Start Highest point End Pass type
(mag) Time Alt. Az. Time Alt. Az. Time Alt. Az.
23 Jan 3.3 18:55:47 10° SSE 18:56:17 10° SSE 18:56:48 10° SSE visible
23 Jan 3.5 20:33:43 10° SW 20:34:20 13° SW 20:34:20 13° SW visible
24 Jan 3.2 18:44:10 10° S 18:45:54 12° SSE 18:47:37 10° SE visible
24 Jan 3.2 20:23:16 10° SW 20:24:44 17° SSW 20:24:44 17° SSW visible
25 Jan 3.1 18:33:15 10° SSW 18:35:31 14° SSE 18:37:48 10° SE visible
25 Jan 2.8 20:12:51 10° SW 20:15:07 21° SSW 20:15:07 21° SSW visible
26 Jan 3.0 18:22:31 10° SSW 18:25:09 16° SSE 18:27:47 10° SE visible
26 Jan 2.5 20:02:29 10° SW 20:05:31 23° S 20:05:31 23° S visible
27 Jan 2.4 19:52:09 10° SW 19:55:26 23° S 19:55:55 22° S visible
28 Jan 2.5 19:41:51 10° SW 19:45:05 22° S 19:46:21 19° SSE visible
29 Jan 2.7 19:31:35 10° WSW 19:34:44 21° S 19:36:50 15° SSE visible
